Showing default

GOES 19, 60133

Orbit data source: Space-Track

GOES 19, 60133 is a payload satellite owned by NOAA (US) in GEO that was launched on Tue, 25 Jun 2024 UTC via an FALCON HEAVY launch vehicle from the Air Force Eastern Test Range (AFETR). Payload-class satellites include a variety of spacecraft equipped with specific instruments for various scientific and technological missions. These include communications satellites like Starlink; space stations such as the ISS; scientific satellites like the Hubble; Earth observation satellites from companies like Planet Labs, Umbra, and HawkEye 360; GPS; miniature CubeSats for education and research; and military/defense satellites.

Loading next visibility...
Identifier
60133, 2024-119A
Orbit
GEO
Country
Flag of USUS
Related business
Manufacturer
LMCSS
Mission
Operational Civil Weather
Bus & Motor
A2100, LEROS-1C
Mass
~5,000 kg wet, 2,925 kg dry
Launch date (UTC)
2024-06-25 (1 year ago)
Launch vehicle
FALCON HEAVY
Launch site
Air Force Eastern Test Range (AFETR)
Object type
Payload
Rocket body
Debris
Shape & HBR
Box + 1 Pan + 1 Rod, 6.0 m
Radar Cross Section
37.561 m²

Expand to show TLE details & history
Last TLE update: 13 hours ago

TLE from 13 hours ago
0 GOES 19
1 60133U 24119A   25258.43220410 -.00000264  00000-0  00000-0 0  9991
2 60133   0.0129  39.7678 0001041 223.7503 171.5127  1.00269972  4201
Epoch: 2025-09-15T10:22Z
TLE epoch observation values (Epoch: 2025-09-15T10:22:22.434Z)
Latitude
-0.00389°
Longitude
-75.19976°
Altitude
35,790.918 km
Speed
3.074 km/s
True Right ascension
05h 00m 07s
True Declination
0° 00' 14"
Sunlit
Object was in daylight at epoch
Visualization orbit readout
Latitude
Unknown
Longitude
Unknown
Altitude
Unknown
Speed
Unknown
Apparent Right ascension
Unknown
Apparent Declination
Unknown
Sunlit
N/A
Visualization observer readout
Local Sidereal Time
15:36:19
Azimuth
Unknown
Elevation
Unknown
Doppler factor
Unknown
Orbital elements
Apogee altitude
35,792.563 km
Perigee altitude
35,783.784 km
Semi-major axis
42,166.311 km
Eccentricity
0.0001
Inclination
0.0129°
RAAN
39.7678°
Arg. of periapsis
223.7503°
True anomaly
171.51446°
Mean anomaly
171.5127°
Eccentric anomaly
171.51358°
Mean motion
0.25067 °/min
Orbital period
1,436.18 mins
BSTAR
0
Loading maneuver chart data...
Computing Atmospheric mass density...
Loading historical data...
Loading historical data...
Loading historical data...
Loading historical data...
Loading historical data...
Loading historical data...
Loading historical data...
Other satellites on launch #119 in the year 2024 (2024-06-25 UTC)

Documentation

Showing up to 5 results
|